Location: Azul
(36.7830°S, 59.8500°W)
Time: 12:17:39
(UTC-03:00)

BEESAT 3 - Pass Details

Date: 24 October 2021
Orbit: 477 x 511 km, 64.9° (Epoch: 28 November)

Event Time Altitude Azimuth Distance (km) Brightness Sun altitude
Rises 03:28:22 0° 189° (S) 2,578 ? -27.8°
Reaches altitude 10° 03:32:08 10° 150° (SSE) 1,682 ? -27.3°
Maximum altitude 03:33:09 11° 134° (SE) 1,623 ? -27.1°
Drops below altitude 10° 03:34:11 10° 118° (ESE) 1,675 ? -27.0°
Sets 03:37:53 0° 80° (E) 2,543 ? -26.4°
